Location: Sungai Bunut
(2.6333°N, 113.7333°E)
Time: 18:55:40
(UTC+00:00)

Meteor PRIRODA - Pass Details

Date: 16 October 2021
Orbit: 487 x 508 km, 97.6° (Epoch: 07 December)

Event Time Altitude Azimuth Distance (km) Brightness Sun altitude
Rises 21:43:45 0° 13° (NNE) 2,582 7.3 -7.0°
Reaches altitude 10° 21:45:50 10° 15° (NNE) 1,697 6.4 -6.5°
Maximum altitude 21:49:29 77° 102° (ESE) 513 3.8 -5.6°
Drops below altitude 10° 21:53:07 10° 187° (S) 1,691 6.4 -4.7°
Sets 21:55:11 0° 189° (S) 2,571 7.3 -4.2°
